Details for AirAsia India at VIDP




Go Back


Latest METAR
Local Time

VIDP 221030Z 10010KT 3000 BR SCT030 BKN080 27/24 Q1007 NOSIG
22/09/2018, 16:17:00

Description
Results
AirAsia India Logo
Number of Pilots based at VIDP
0 Pilots Based here
Number of AirAsia India Flights Departed from VIDP
0 Flights Departed
Number of AirAsia India Flights Arrived at VIDP
0 Flights Arrived
Number of AirAsia India Schedules Departing from VIDP
18 Schedules
Number of AirAsia India Schedules Arriving at VIDP
18 Schedules
Number of AirAsia India Schedules Departing from VIDP availible today
18 Schedules Today
Number of AirAsia India Schedules Arriving at VIDP availible today
18 Schedules Today
Average Landing Rate at VIDP
-170 fpm
AirAsia India Average Landing Rate at VIDP
0 fpm
Total Fuel Purchased at VIDP by AirAsia India
0.00 kgs / 0.00 lbs

Pilots Based at VIDP


Pilot ID
Pilot Name
Pilot Rank
No. of Flights
No. of Flying Hours
There are no pilots assigned to this hub!   Will you be the first?
Content